This is the latest recevied weather packets stored in our database for station/object NR6G-5. If no packets are shown the sender has not sent any weather packets the latest 10 day(s).
| Time | Temp. | Humidity | Pressure | Rain* | Wind** | Luminosity | Snow |
|---|---|---|---|---|---|---|---|
| 1777965250 | 15.56° C | 65% | 1012.8 hPa | 0 mm | - | - | - |
| 1777964950 | 15.56° C | 69% | 1012.8 hPa | 0 mm | - | - | - |
| 1777964651 | 15° C | 69% | 1012.7 hPa | 0 mm | - | - | - |
| 1777964350 | 15° C | 69% | 1012.7 hPa | 0 mm | - | - | - |
| 1777964050 | 15.56° C | 67% | 1012.7 hPa | 0 mm | - | - | - |
| 1777963752 | 15.56° C | 66% | 1012.7 hPa | 0 mm | - | - | - |
| 1777963450 | 15.56° C | 65% | 1012.6 hPa | 0 mm | - | - | - |
| 1777963150 | 15.56° C | 64% | 1012.5 hPa | 0 mm | - | - | - |
| 1777962751 | 15.56° C | 63% | 1012.5 hPa | 0 mm | - | - | - |
| 1777962452 | 15.56° C | 63% | 1012.4 hPa | 0 mm | - | - | - |
| 1777962150 | 15.56° C | 62% | 1012.3 hPa | 0 mm | - | - | - |
| 1777961850 | 15.56° C | 60% | 1012.4 hPa | 0 mm | - | - | - |
| 1777961551 | 16.11° C | 59% | 1012.2 hPa | 0 mm | - | - | - |
| 1777961250 | 16.11° C | 59% | 1012.3 hPa | 0 mm | - | - | - |
| 1777960951 | 16.11° C | 57% | 1012.3 hPa | 0 mm | - | - | - |
| 1777960650 | 15.56° C | 58% | 1012.3 hPa | 0 mm | - | - | - |
| 1777960352 | 15.56° C | 56% | 1012.3 hPa | 0 mm | - | - | - |
| 1777960051 | 16.11° C | 55% | 1012.4 hPa | 0 mm | - | - | - |
| 1777959747 | 16.11° C | 54% | 1012.2 hPa | 0 mm | - | - | - |
| 1777959447 | 16.11° C | 54% | 1012.3 hPa | 0 mm | - | - | - |
| 1777959148 | 16.11° C | 54% | 1012.4 hPa | 0 mm | - | - | - |
| 1777958848 | 16.11° C | 54% | 1012.4 hPa | 0 mm | - | - | - |
| 1777958548 | 16.67° C | 54% | 1012.4 hPa | 0 mm | - | - | - |
| 1777958250 | 16.67° C | 54% | 1012.4 hPa | 0 mm | - | - | - |
| 1777957951 | 16.67° C | 53% | 1012.5 hPa | 0 mm | - | - | - |
* Rain latest hour (hover to see other rain measurements)
** Current wind speed in m/s (hover to see current wind gust speed)